TimePDT,TemperatureF,Dew PointF,Humidity,Sea Level PressureIn,VisibilityMPH,Wind Direction,Wind SpeedMPH,Gust SpeedMPH,PrecipitationIn,Events,Conditions,WindDirDegrees,DateUTC
12:56 AM,57.0,36.0,45,30.04,10.0,NNW,10.4,-,N/A,,Clear,330,2014-03-20 07:56:00
1:56 AM,55.9,34.0,44,30.05,10.0,WNW,5.8,-,N/A,,Clear,300,2014-03-20 08:56:00
2:56 AM,53.1,34.0,48,30.04,10.0,NW,5.8,-,N/A,,Clear,310,2014-03-20 09:56:00
3:56 AM,54.0,34.0,47,30.03,10.0,NW,9.2,-,N/A,,Clear,310,2014-03-20 10:56:00
4:56 AM,51.1,33.1,50,30.02,10.0,WNW,6.9,-,N/A,,Clear,290,2014-03-20 11:56:00
5:56 AM,50.0,30.9,48,30.02,10.0,West,5.8,-,N/A,,Clear,260,2014-03-20 12:56:00
6:56 AM,51.1,34.0,52,30.03,10.0,Calm,Calm,-,N/A,,Mostly Cloudy,0,2014-03-20 13:56:00
7:56 AM,50.0,33.1,52,30.04,10.0,WNW,4.6,-,N/A,,Mostly Cloudy,290,2014-03-20 14:56:00
8:56 AM,61.0,36.0,39,30.05,10.0,NW,4.6,-,N/A,,Mostly Cloudy,320,2014-03-20 15:56:00
9:56 AM,66.9,37.0,33,30.04,10.0,NNW,6.9,-,N/A,,Mostly Cloudy,330,2014-03-20 16:56:00
10:56 AM,72.0,41.0,33,30.03,10.0,NW,8.1,-,N/A,,Mostly Cloudy,320,2014-03-20 17:56:00
11:56 AM,75.0,41.0,29,30.01,10.0,NNW,10.4,-,N/A,,Mostly Cloudy,340,2014-03-20 18:56:00
12:56 PM,79.0,39.9,25,29.99,10.0,NW,8.1,-,N/A,,Mostly Cloudy,320,2014-03-20 19:56:00
1:56 PM,82.0,37.9,21,29.96,10.0,NW,5.8,-,N/A,,Mostly Cloudy,320,2014-03-20 20:56:00
2:56 PM,82.9,37.9,20,29.93,10.0,NNW,4.6,-,N/A,,Scattered Clouds,340,2014-03-20 21:56:00
3:56 PM,84.0,36.0,18,29.91,10.0,Variable,6.9,-,N/A,,Scattered Clouds,0,2014-03-20 22:56:00
4:56 PM,82.0,36.0,19,29.89,10.0,North,5.8,-,N/A,,Mostly Cloudy,360,2014-03-20 23:56:00
5:56 PM,80.1,36.0,20,29.88,10.0,North,9.2,-,N/A,,Mostly Cloudy,10,2014-03-21 00:56:00
6:56 PM,77.0,37.9,24,29.88,10.0,North,8.1,-,N/A,,Mostly Cloudy,360,2014-03-21 01:56:00
7:56 PM,73.9,39.0,28,29.89,10.0,North,8.1,-,N/A,,Mostly Cloudy,360,2014-03-21 02:56:00
8:56 PM,72.0,39.9,31,29.91,10.0,North,8.1,-,N/A,,Mostly Cloudy,350,2014-03-21 03:56:00
9:56 PM,68.0,39.9,36,29.91,10.0,NW,6.9,-,N/A,,Mostly Cloudy,310,2014-03-21 04:56:00
10:56 PM,68.0,39.9,36,29.92,10.0,NW,11.5,-,N/A,,Mostly Cloudy,310,2014-03-21 05:56:00
11:56 PM,68.0,39.9,36,29.92,10.0,NW,12.7,-,N/A,,Mostly Cloudy,310,2014-03-21 06:56:00